TimePST,TemperatureF,Dew PointF,Humidity,Sea Level PressureIn,VisibilityMPH,Wind Direction,Wind SpeedMPH,Gust SpeedMPH,PrecipitationIn,Events,Conditions,WindDirDegrees,DateUTC
12:55 AM,16.0,14.0,92,30.51,5.0,Calm,Calm,-,N/A,,Clear,0,2013-12-16 08:55:00
1:55 AM,14.0,10.9,88,30.52,10.0,SW,3.5,-,N/A,,Clear,230,2013-12-16 09:55:00
2:55 AM,15.1,12.0,88,30.51,10.0,Calm,Calm,-,N/A,,Clear,0,2013-12-16 10:55:00
3:55 AM,15.1,10.9,84,30.51,4.0,East,3.5,-,N/A,,Clear,100,2013-12-16 11:55:00
4:55 AM,14.0,10.9,88,30.53,4.0,Calm,Calm,-,N/A,,Clear,0,2013-12-16 12:55:00
5:55 AM,12.0,9.0,88,30.55,10.0,Calm,Calm,-,N/A,,Clear,0,2013-12-16 13:55:00
6:55 AM,12.0,9.0,88,30.57,10.0,NNW,3.5,-,N/A,,Clear,340,2013-12-16 14:55:00
7:55 AM,10.9,8.1,88,30.59,5.0,Calm,Calm,-,N/A,,Clear,0,2013-12-16 15:55:00
8:55 AM,19.9,17.1,89,30.57,10.0,Calm,Calm,-,N/A,,Clear,0,2013-12-16 16:55:00
9:55 AM,27.0,21.9,81,30.56,9.0,Calm,Calm,-,N/A,,Clear,0,2013-12-16 17:55:00
10:55 AM,35.1,21.9,59,30.52,10.0,NE,3.5,-,N/A,,Clear,50,2013-12-16 18:55:00
11:55 AM,42.1,25.0,51,30.48,10.0,Calm,Calm,-,N/A,,Clear,0,2013-12-16 19:55:00
12:55 PM,45.0,26.1,48,30.45,10.0,Calm,Calm,-,N/A,,Clear,0,2013-12-16 20:55:00
1:55 PM,48.9,27.0,43,30.43,10.0,Calm,Calm,-,N/A,,Clear,0,2013-12-16 21:55:00
2:55 PM,51.1,27.0,39,30.42,10.0,SSE,3.5,-,N/A,,Clear,150,2013-12-16 22:55:00
3:55 PM,50.0,26.1,39,30.41,10.0,SSE,3.5,-,N/A,,Clear,150,2013-12-16 23:55:00
4:55 PM,39.9,25.0,55,30.44,10.0,East,8.1,-,N/A,,Clear,80,2013-12-17 00:55:00
5:55 PM,35.1,23.0,61,30.46,10.0,East,3.5,-,N/A,,Clear,80,2013-12-17 01:55:00
6:55 PM,30.0,21.9,72,30.48,10.0,NE,4.6,-,N/A,,Clear,50,2013-12-17 02:55:00
7:55 PM,30.0,21.0,69,30.49,10.0,ENE,4.6,-,N/A,,Clear,60,2013-12-17 03:55:00
8:55 PM,28.0,19.9,72,30.48,10.0,Calm,Calm,-,N/A,,Clear,0,2013-12-17 04:55:00
9:55 PM,23.0,19.0,85,30.47,9.0,Calm,Calm,-,N/A,,Clear,0,2013-12-17 05:55:00
10:55 PM,21.9,18.0,85,30.45,10.0,Calm,Calm,-,N/A,,Clear,0,2013-12-17 06:55:00
11:55 PM,19.0,16.0,88,30.43,5.0,Variable,3.5,-,N/A,,Clear,0,2013-12-17 07:55:00